METEOR 2-11 DEB, 40317

Orbit data source: Space-Track

METEOR 2-11 DEB, 40317 is space debris in LEO originally from a launch on Thu, 05 Jul 1984 UTC launched from the Plesetsk Missile And Space Complex (PKMTR). Debris objects in space refer to the collection of defunct objects orbiting the Earth. Examples of debris include non-operational satellites, rocket bodies, and fragments generated from explosions, collisions, or faulty payload assembly.

Loading next visibility...
Identifier
40317, 1984-072C
Orbit
LEO
Last TLE update
1 week ago
Origin
Manufacturer
Unknown
Mission
Spacecraft
Bus & Motor
Unknown
Mass
Unknown
Launch date (UTC)
1984-07-05 (41 years ago)
Launch vehicle
Unknown
Launch site
Plesetsk Missile And Space Complex (PKMTR)
Object type
Payload
Rocket body
Debris
Shape & HBR
Unknown
Radar Cross Section
Small (<0.1 m²)

Expand to show TLE details & history

TLE from 1 week ago
0 METEOR 2-11 DEB
1 40317U 84072C   25121.91056741  .00003091  00000-0  21831-2 0  9990
2 40317  82.5212 341.7787 0012022 148.0496 212.1403 13.97579429528524
Epoch: 2025-05-01T21:51Z
Definitive object data (Epoch: 2025-05-01T21:51:13.024Z)
Latitude
-0.00001°
Longitude
153.89968°
Altitude
912.525 km
Speed
7.392 km/s
True Right ascension
22h 47m 06s
True Declination
0° 00' 00"
Sunlit
Object was in daylight at TLE epoch
Visualization TLE readout
Latitude
19.35059°
Longitude
-34.70642°
Altitude
897.183 km
Speed
7.409 km/s
Apparent Right ascension
07h 15m 16s
Apparent Declination
-15° 52' 17"
Sunlit
Object is in daylight
Visualization observer readout
Local Sidereal Time
14:01:15
Azimuth
264.743° W
Elevation
-18.817°
Doppler factor
1
Orbital elements
Apogee altitude
908.073 km
Perigee altitude
890.575 km
Semi-major axis
7,277.461 km
Eccentricity
0.0012022
Inclination
82.5212°
RAAN
341.7787°
Arg. of periapsis
148.0496°
True anomaly
212.0671°
Mean anomaly
212.1403°
Eccentric anomaly
212.10369°
Mean motion
3.49602 °/min
BSTAR
0.0021831
Orbital period
102.97 mins
Loading maneuver chart data...
Loading SW <> Apogee altitude chart data...
Loading historical data...
Loading historical data...
Loading historical data...
Loading historical data...
Loading historical data...
Loading historical data...
Loading historical data...

METEOR 2-11 DEB Visibility forecast

Observer location: undefined°, undefined°

Span
Click to sort rows by Start time (UTC) header in descending order
Start Az.
Max El. time (UTC)
Max El. Az.
Max El.
End time (UTC)
End Az.
10 mins2025-05-09 13:48:31.333Z154.008° SSE2025-05-09 13:53:31.333Z89.087° E31.619°2025-05-09 13:58:31.333Z25.178° NE
8 mins2025-05-09 15:33:31.333Z235.626° WSW2025-05-09 15:37:31.333Z288.884° WNW25.266°2025-05-09 15:41:31.333Z339.722° N
8 mins2025-05-10 00:36:31.333Z27.543° NE2025-05-10 00:39:31.333Z67.305° ENE23.882°2025-05-10 00:44:31.333Z128.092° SE
9 mins2025-05-10 02:19:31.333Z332.303° NNW2025-05-10 02:23:31.333Z276.842° WNW32.688°2025-05-10 02:28:31.333Z205.021° SW
|